Location: Central Falls
(41.8900°N, 71.3929°W)
Time: 07:57:38
(UTC+00:00)

Tiros 1 despin weight - Pass Details

Date: 12 December 2023
Orbit: 581 x 624 km, 48.2° (Epoch: 29 February)

Event Time Altitude Azimuth Distance (km) Brightness Sun altitude
Rises 02:53:42 0° 289° (WNW) 2,796 - -61.1°
Reaches altitude 10° 02:56:19 10° 275° (W) 1,894 - -61.5°
Maximum altitude 02:59:45 23° 223° (SW) 1,245 - -62.0°
Drops below altitude 10° 03:03:11 10° 170° (S) 1,894 - -62.6°
Sets 03:05:48 0° 156° (SSE) 2,796 - -62.9°
